When you browse on this site, cookies collect data to enhance your experience and personalize the content and advertising you see.
Visit our Privacy Policy to learn more. By continuing to use the site, you agree to this use of cookies and data.
EN

Hourly Weather Zamczysko

Today, 10 August, Monday

Time Temperature Precipitation Wind Pressure Humidity
00:00 +21°C° 0.1 mm 2 mps 759 mmHg 88%
01:00 +21°C° 0.1 mm 2 mps 759 mmHg 88%
02:00 +21°C° 0 mm 2 mps 759 mmHg 90%
03:00 +20°C° 0 mm 2 mps 759 mmHg 91%
04:00 +20°C° 0 mm 2 mps 759 mmHg 93%
05:00 +21°C° 0 mm 3 mps 759 mmHg 90%
06:00 +22°C° 0 mm 3 mps 759 mmHg 87%
07:00 +22°C° 0 mm 3 mps 759 mmHg 85%
08:00 +25°C° 0 mm 3 mps 759 mmHg 77%
09:00 +27°C° 0 mm 3 mps 759 mmHg 69%
10:00 +28°C° 0 mm 3 mps 759 mmHg 62%
11:00 +29°C° 0 mm 3 mps 759 mmHg 57%
12:00 +30°C° 0 mm 3 mps 759 mmHg 53%
13:00 +31°C° 0 mm 3 mps 759 mmHg 48%
14:00 +31°C° 0 mm 3 mps 759 mmHg 48%
15:00 +31°C° 0 mm 2 mps 759 mmHg 47%
16:00 +31°C° 0 mm 2 mps 759 mmHg 47%
17:00 +29°C° 0 mm 3 mps 759 mmHg 53%
18:00 +28°C° 0 mm 3 mps 759 mmHg 58%
19:00 +27°C° 0 mm 4 mps 758 mmHg 64%
20:00 +25°C° 0.1 mm 4 mps 759 mmHg 70%
21:00 +23°C° 0.1 mm 4 mps 759 mmHg 75%
22:00 +22°C° 0.1 mm 4 mps 760 mmHg 81%
23:00 +21°C° 0 mm 4 mps 760 mmHg 83%

Tomorrow, 11 August, Tuesday

Time Temperature Precipitation Wind Pressure Humidity
00:00 +20°C° 0 mm 4 mps 760 mmHg 85%
01:00 +19°C° 0 mm 3 mps 760 mmHg 88%
02:00 +19°C° 0 mm 3 mps 760 mmHg 89%
03:00 +18°C° 0 mm 3 mps 760 mmHg 91%
04:00 +18°C° 0 mm 3 mps 760 mmHg 92%
05:00 +19°C° 0 mm 3 mps 760 mmHg 87%
06:00 +20°C° 0 mm 3 mps 760 mmHg 82%
07:00 +20°C° 0 mm 3 mps 760 mmHg 77%
08:00 +22°C° 0 mm 3 mps 761 mmHg 69%
09:00 +25°C° 0 mm 3 mps 761 mmHg 61%
10:00 +27°C° 0 mm 3 mps 761 mmHg 53%
11:00 +27°C° 0 mm 3 mps 761 mmHg 50%
12:00 +28°C° 0 mm 4 mps 761 mmHg 47%
13:00 +29°C° 0 mm 4 mps 760 mmHg 44%
14:00 +29°C° 0 mm 4 mps 760 mmHg 45%
15:00 +28°C° 0 mm 4 mps 760 mmHg 45%
16:00 +28°C° 0 mm 4 mps 760 mmHg 46%
17:00 +27°C° 0 mm 4 mps 760 mmHg 53%
18:00 +25°C° 0 mm 4 mps 760 mmHg 59%
19:00 +22°C° 0 mm 4 mps 760 mmHg 66%
20:00 +21°C° 0 mm 4 mps 761 mmHg 68%
21:00 +20°C° 0 mm 4 mps 761 mmHg 70%
22:00 +19°C° 0 mm 5 mps 761 mmHg 71%
23:00 +18°C° 0 mm 4 mps 761 mmHg 73%

Day after tomorrow, 12 August, Wednesday

Time Temperature Precipitation Wind Pressure Humidity
00:00 +18°C° 0 mm 4 mps 761 mmHg 75%
01:00 +17°C° 0 mm 3 mps 762 mmHg 77%
02:00 +16°C° 0 mm 3 mps 762 mmHg 79%
03:00 +16°C° 0 mm 3 mps 762 mmHg 81%
04:00 +14°C° 0 mm 3 mps 762 mmHg 82%
05:00 +16°C° 0 mm 3 mps 762 mmHg 79%
06:00 +17°C° 0 mm 3 mps 762 mmHg 75%
07:00 +18°C° 0 mm 4 mps 762 mmHg 71%
08:00 +20°C° 0 mm 4 mps 762 mmHg 64%
09:00 +22°C° 0 mm 4 mps 762 mmHg 57%
10:00 +23°C° 0 mm 4 mps 762 mmHg 49%
11:00 +25°C° 0 mm 4 mps 762 mmHg 46%
12:00 +26°C° 0 mm 4 mps 762 mmHg 43%
13:00 +27°C° 0 mm 4 mps 761 mmHg 40%
14:00 +27°C° 0 mm 3 mps 761 mmHg 39%
15:00 +27°C° 0 mm 3 mps 761 mmHg 39%
16:00 +27°C° 0 mm 3 mps 761 mmHg 39%
17:00 +25°C° 0 mm 3 mps 761 mmHg 44%
18:00 +24°C° 0 mm 2 mps 760 mmHg 49%
19:00 +21°C° 0 mm 2 mps 760 mmHg 54%
20:00 +20°C° 0 mm 2 mps 760 mmHg 57%
21:00 +19°C° 0 mm 3 mps 761 mmHg 61%
22:00 +18°C° 0 mm 3 mps 761 mmHg 65%
23:00 +17°C° 0 mm 3 mps 761 mmHg 70%

13 August, Thursday

Time Temperature Precipitation Wind Pressure Humidity
00:00 +17°C° 0 mm 2 mps 761 mmHg 75%
01:00 +16°C° 0 mm 2 mps 761 mmHg 80%
02:00 +16°C° 0 mm 2 mps 760 mmHg 81%
03:00 +16°C° 0 mm 2 mps 760 mmHg 82%
04:00 +15°C° 0 mm 2 mps 760 mmHg 83%
05:00 +16°C° 0 mm 2 mps 760 mmHg 80%
06:00 +17°C° 0 mm 2 mps 760 mmHg 77%
07:00 +19°C° 0 mm 3 mps 760 mmHg 74%
08:00 +20°C° 0 mm 3 mps 760 mmHg 67%
09:00 +22°C° 0 mm 3 mps 760 mmHg 61%
10:00 +25°C° 0 mm 3 mps 760 mmHg 54%
11:00 +26°C° 0 mm 3 mps 760 mmHg 51%
12:00 +26°C° 0 mm 3 mps 760 mmHg 48%
13:00 +27°C° 0 mm 3 mps 759 mmHg 45%
14:00 +27°C° 0 mm 3 mps 759 mmHg 45%
15:00 +27°C° 0 mm 3 mps 759 mmHg 45%
16:00 +27°C° 0 mm 3 mps 758 mmHg 45%
17:00 +25°C° 0 mm 3 mps 758 mmHg 51%
18:00 +24°C° 0 mm 3 mps 758 mmHg 57%
19:00 +21°C° 0 mm 3 mps 758 mmHg 63%
20:00 +20°C° 0 mm 3 mps 758 mmHg 64%
21:00 +19°C° 0 mm 3 mps 759 mmHg 65%
22:00 +18°C° 0 mm 3 mps 759 mmHg 66%
23:00 +17°C° 0 mm 3 mps 759 mmHg 68%

14 August, Friday

Time Temperature Precipitation Wind Pressure Humidity
00:00 +16°C° 0 mm 3 mps 759 mmHg 70%
01:00 +16°C° 0 mm 3 mps 759 mmHg 72%
02:00 +14°C° 0 mm 3 mps 759 mmHg 74%
03:00 +14°C° 0 mm 3 mps 758 mmHg 76%
04:00 +14°C° 0 mm 3 mps 758 mmHg 78%
05:00 +16°C° 0 mm 3 mps 758 mmHg 76%
06:00 +17°C° 0 mm 4 mps 758 mmHg 74%
07:00 +18°C° 0 mm 4 mps 758 mmHg 72%
08:00 +20°C° 0 mm 4 mps 759 mmHg 66%
09:00 +21°C° 0 mm 4 mps 759 mmHg 60%
10:00 +23°C° 0 mm 4 mps 759 mmHg 54%
11:00 +25°C° 0 mm 4 mps 758 mmHg 50%
12:00 +26°C° 0 mm 4 mps 758 mmHg 46%
13:00 +26°C° 0 mm 4 mps 758 mmHg 43%
14:00 +26°C° 0 mm 4 mps 758 mmHg 43%
15:00 +26°C° 0 mm 4 mps 757 mmHg 43%
16:00 +26°C° 0 mm 4 mps 757 mmHg 44%
17:00 +25°C° 0 mm 4 mps 757 mmHg 51%
18:00 +22°C° 0 mm 3 mps 757 mmHg 58%
19:00 +21°C° 0 mm 3 mps 757 mmHg 64%
20:00 +20°C° 0 mm 3 mps 757 mmHg 67%
21:00 +19°C° 0 mm 3 mps 757 mmHg 69%
22:00 +18°C° 0 mm 3 mps 758 mmHg 71%
23:00 +17°C° 0 mm 3 mps 758 mmHg 73%

15 August, Saturday

Time Temperature Precipitation Wind Pressure Humidity
00:00 +17°C° 0 mm 3 mps 758 mmHg 75%
01:00 +16°C° 0 mm 3 mps 758 mmHg 77%
02:00 +16°C° 0 mm 3 mps 758 mmHg 79%
03:00 +16°C° 0 mm 3 mps 758 mmHg 82%
04:00 +14°C° 0 mm 3 mps 758 mmHg 84%
05:00 +16°C° 0 mm 3 mps 758 mmHg 81%
06:00 +17°C° 0 mm 3 mps 758 mmHg 79%
07:00 +18°C° 0 mm 3 mps 758 mmHg 76%
08:00 +20°C° 0 mm 3 mps 758 mmHg 69%
09:00 +22°C° 0 mm 3 mps 758 mmHg 61%
10:00 +25°C° 0 mm 3 mps 758 mmHg 54%
11:00 +26°C° 0 mm 3 mps 758 mmHg 49%
12:00 +27°C° 0 mm 3 mps 758 mmHg 45%
13:00 +28°C° 0 mm 3 mps 758 mmHg 41%
14:00 +28°C° 0 mm 3 mps 758 mmHg 40%
15:00 +28°C° 0 mm 3 mps 758 mmHg 40%
16:00 +28°C° 0 mm 3 mps 758 mmHg 39%
17:00 +26°C° 0 mm 3 mps 758 mmHg 45%
18:00 +25°C° 0 mm 2 mps 758 mmHg 50%
19:00 +23°C° 0 mm 2 mps 758 mmHg 56%
20:00 +21°C° 0 mm 2 mps 758 mmHg 58%
21:00 +20°C° 0 mm 2 mps 759 mmHg 60%
22:00 +19°C° 0 mm 2 mps 759 mmHg 62%
23:00 +19°C° 0 mm 2 mps 759 mmHg 63%
Show more